sat.trackr.live / text

‹ back to catalog

STARLINK-30842

NORAD 58357 · 2023-177G

PAYLOAD ACTIVE UNKNOWN

§ Identity

Operator
Country
US
Launch date
2023-11-18
Launch site
AFETR
Launch vehicle
Mass (kg)
RCS (m²)

Purposes: comms

External: N2YO · Heavens-Above · Gunter

§ Orbital elements

Epoch: 2026-05-25T01:22:38.343936Z

Period
94.30 min
Inclination
43.0106°
Eccentricity
0.0004074
Mean motion
15.27005593 rev/d
Perigee alt
482.0 km
Apogee alt
487.6 km
Semi-major
6,862.9 km
B*
1.1094e-3
RAAN
265.8303°
Arg perigee
305.3416°
Mean anomaly
54.7055°
Rev number
14,006

§ Raw data

STARLINK-308421 58357U 23177G   26145.05738824  .00029865  00000+0  11094-2 0  99992 58357  43.0106 265.8303 0004074 305.3416  54.7055 15.27005593140062

JSON: /api/v1/satellites/58357 · /tle

For live sub-satellite position, see the globe view (requires WebGL).

§ Visibility from observer

Set your observer location to see the next 7 days of passes ≥ 10°. The values pass through the URL so the page stays shareable.

No JS? Fill the form by hand. The geolocation button needs JavaScript.